{"data":{"norad_id":56359,"intl_designator":"2023-058AU","name":"STARLINK-5551","alt_names":[],"object_type":"PAYLOAD","status":"ACTIVE","operator":null,"country":"US","launch_date":"2023-04-27","launch_site_code":"AFWTR","launch_vehicle":null,"mission":null,"orbit_class":"UNKNOWN","rcs_meters":null,"size_class":null,"mass_kg":null,"dimensions":null,"purposes":["comms"],"wikipedia_slug":null,"has_3d_model":false,"image_url":null,"decayed_at":null,"tle_current":{"epoch":"2026-09-20T22:00:03.000096Z","epoch_age_seconds":72592,"freshness":"FRESH","line1":"1 56359U 23058AU  26263.91670139  .00073457  00000+0  31616-2 0  9995","line2":"2 56359  97.2830 257.7410 0000901  95.0370 278.9460 15.22317139  5486","mean_motion":15.22317139,"eccentricity":9.01e-5,"inclination_deg":97.283,"raan_deg":257.741,"arg_perigee_deg":95.037,"mean_anomaly_deg":278.946,"bstar":0.0031616,"rev_number":548,"period_min":94.592641908106,"perigee_km":498.23376150452,"apogee_km":499.4729951707,"semimajor_km":6876.9903783376,"source":"CELESTRAK","updated_at":"2026-09-21T09:00:33.429180Z"}}}